When you browse on this site, cookies collect data to enhance your experience and personalize the content and advertising you see.
Visit our Privacy Policy to learn more. By continuing to use the site, you agree to this use of cookies and data.
EN

Hourly Weather Dombovar

Today, 5 July, Sunday

Time Temperature Precipitation Wind Pressure Humidity
00:00 +19°C° 0 mm 1 mps 751 mmHg 79%
01:00 +18°C° 0 mm 1 mps 751 mmHg 80%
02:00 +17°C° 0 mm 2 mps 751 mmHg 80%
03:00 +17°C° 0 mm 2 mps 751 mmHg 81%
04:00 +16°C° 0 mm 2 mps 751 mmHg 81%
05:00 +18°C° 0 mm 2 mps 751 mmHg 77%
06:00 +20°C° 0 mm 3 mps 751 mmHg 73%
07:00 +21°C° 0 mm 3 mps 751 mmHg 70%
08:00 +24°C° 0 mm 3 mps 751 mmHg 64%
09:00 +26°C° 0 mm 3 mps 751 mmHg 59%
10:00 +28°C° 0 mm 4 mps 751 mmHg 53%
11:00 +28°C° 0 mm 4 mps 751 mmHg 51%
12:00 +29°C° 0 mm 4 mps 751 mmHg 49%
13:00 +30°C° 0 mm 4 mps 750 mmHg 46%
14:00 +30°C° 0 mm 3 mps 750 mmHg 47%
15:00 +29°C° 0 mm 3 mps 749 mmHg 48%
16:00 +29°C° 0 mm 3 mps 749 mmHg 48%
17:00 +28°C° 0 mm 2 mps 749 mmHg 55%
18:00 +26°C° 0 mm 2 mps 749 mmHg 62%
19:00 +25°C° 0 mm 1 mps 749 mmHg 69%
20:00 +24°C° 0 mm 1 mps 749 mmHg 72%
21:00 +21°C° 0 mm 0 mps 749 mmHg 74%
22:00 +20°C° 0 mm 0 mps 749 mmHg 77%
23:00 +19°C° 0 mm 0 mps 749 mmHg 78%

Tomorrow, 6 July, Monday

Time Temperature Precipitation Wind Pressure Humidity
00:00 +21°C° 0 mm 1 mps 748 mmHg 78%
01:00 +21°C° 0 mm 1 mps 748 mmHg 79%
02:00 +20°C° 0 mm 1 mps 748 mmHg 80%
03:00 +20°C° 0 mm 1 mps 748 mmHg 81%
04:00 +20°C° 0 mm 1 mps 748 mmHg 82%
05:00 +22°C° 0 mm 1 mps 748 mmHg 77%
06:00 +23°C° 0 mm 1 mps 748 mmHg 72%
07:00 +25°C° 0 mm 1 mps 748 mmHg 67%
08:00 +27°C° 0 mm 2 mps 748 mmHg 64%
09:00 +28°C° 0 mm 2 mps 747 mmHg 60%
10:00 +29°C° 0 mm 3 mps 747 mmHg 57%
11:00 +30°C° 0.3 mm 3 mps 747 mmHg 57%
12:00 +30°C° 0.3 mm 3 mps 746 mmHg 58%
13:00 +30°C° 0.3 mm 4 mps 745 mmHg 59%
14:00 +30°C° 0.1 mm 4 mps 745 mmHg 58%
15:00 +30°C° 0.1 mm 3 mps 745 mmHg 57%
16:00 +30°C° 0.1 mm 3 mps 744 mmHg 56%
17:00 +29°C° 0.2 mm 3 mps 744 mmHg 63%
18:00 +27°C° 0.2 mm 3 mps 744 mmHg 69%
19:00 +26°C° 0.2 mm 2 mps 744 mmHg 76%
20:00 +25°C° 0 mm 4 mps 745 mmHg 76%
21:00 +22°C° 0 mm 6 mps 745 mmHg 77%
22:00 +21°C° 0 mm 7 mps 745 mmHg 77%
23:00 +20°C° 0 mm 8 mps 746 mmHg 69%

Day after tomorrow, 7 July, Tuesday

Time Temperature Precipitation Wind Pressure Humidity
00:00 +18°C° 0 mm 9 mps 746 mmHg 62%
01:00 +17°C° 0 mm 10 mps 747 mmHg 54%
02:00 +17°C° 0 mm 10 mps 747 mmHg 57%
03:00 +16°C° 0 mm 10 mps 747 mmHg 60%
04:00 +16°C° 0 mm 10 mps 748 mmHg 62%
05:00 +16°C° 0 mm 10 mps 748 mmHg 62%
06:00 +16°C° 0 mm 9 mps 749 mmHg 61%
07:00 +15°C° 0 mm 9 mps 749 mmHg 61%
08:00 +15°C° 2.1 mm 8 mps 749 mmHg 69%
09:00 +13°C° 2.1 mm 8 mps 749 mmHg 78%
10:00 +12°C° 2.1 mm 7 mps 750 mmHg 86%
11:00 +14°C° 1.5 mm 7 mps 750 mmHg 86%
12:00 +14°C° 1.5 mm 6 mps 750 mmHg 86%
13:00 +15°C° 1.5 mm 5 mps 750 mmHg 85%
14:00 +17°C° 0.3 mm 4 mps 750 mmHg 80%
15:00 +18°C° 0.3 mm 4 mps 750 mmHg 75%
16:00 +19°C° 0.3 mm 3 mps 750 mmHg 70%
17:00 +18°C° 0.1 mm 3 mps 750 mmHg 75%
18:00 +17°C° 0.1 mm 2 mps 750 mmHg 80%
19:00 +18°C° 0.1 mm 1 mps 751 mmHg 85%
20:00 +16°C° 0 mm 1 mps 751 mmHg 86%
21:00 +15°C° 0 mm 1 mps 751 mmHg 87%
22:00 +14°C° 0 mm 2 mps 751 mmHg 89%
23:00 +14°C° 0 mm 2 mps 751 mmHg 88%

8 July, Wednesday

Time Temperature Precipitation Wind Pressure Humidity
00:00 +13°C° 0 mm 2 mps 751 mmHg 87%
01:00 +13°C° 0 mm 2 mps 751 mmHg 87%
02:00 +13°C° 0 mm 2 mps 751 mmHg 88%
03:00 +12°C° 0 mm 2 mps 751 mmHg 88%
04:00 +12°C° 0 mm 2 mps 751 mmHg 89%
05:00 +13°C° 0 mm 2 mps 751 mmHg 84%
06:00 +15°C° 0 mm 2 mps 751 mmHg 78%
07:00 +17°C° 0 mm 2 mps 751 mmHg 73%
08:00 +18°C° 0 mm 2 mps 751 mmHg 65%
09:00 +20°C° 0 mm 2 mps 751 mmHg 57%
10:00 +23°C° 0 mm 2 mps 751 mmHg 49%
11:00 +24°C° 0 mm 2 mps 751 mmHg 46%
12:00 +24°C° 0 mm 2 mps 751 mmHg 42%
13:00 +25°C° 0 mm 2 mps 750 mmHg 39%
14:00 +25°C° 0 mm 2 mps 750 mmHg 39%
15:00 +26°C° 0 mm 2 mps 750 mmHg 39%
16:00 +26°C° 0 mm 2 mps 750 mmHg 39%
17:00 +24°C° 0 mm 1 mps 750 mmHg 46%
18:00 +23°C° 0 mm 1 mps 750 mmHg 53%
19:00 +19°C° 0 mm 0 mps 750 mmHg 60%
20:00 +18°C° 0 mm 0 mps 750 mmHg 61%
21:00 +17°C° 0 mm 0 mps 751 mmHg 63%
22:00 +16°C° 0 mm 1 mps 751 mmHg 64%
23:00 +16°C° 0 mm 1 mps 751 mmHg 64%

9 July, Thursday

Time Temperature Precipitation Wind Pressure Humidity
00:00 +16°C° 0 mm 1 mps 751 mmHg 64%
01:00 +16°C° 0 mm 1 mps 751 mmHg 65%
02:00 +16°C° 0 mm 1 mps 751 mmHg 66%
03:00 +15°C° 0 mm 2 mps 751 mmHg 67%
04:00 +15°C° 0 mm 2 mps 751 mmHg 68%
05:00 +17°C° 0 mm 2 mps 752 mmHg 67%
06:00 +19°C° 0 mm 2 mps 752 mmHg 67%
07:00 +20°C° 0 mm 2 mps 752 mmHg 66%
08:00 +22°C° 0 mm 3 mps 752 mmHg 61%
09:00 +25°C° 0 mm 3 mps 752 mmHg 56%
10:00 +27°C° 0 mm 3 mps 752 mmHg 51%
11:00 +27°C° 0 mm 3 mps 752 mmHg 50%
12:00 +27°C° 0 mm 3 mps 752 mmHg 48%
13:00 +28°C° 0 mm 3 mps 752 mmHg 47%
14:00 +28°C° 0 mm 3 mps 751 mmHg 48%
15:00 +28°C° 0 mm 3 mps 751 mmHg 48%
16:00 +28°C° 0 mm 2 mps 751 mmHg 49%
17:00 +26°C° 0 mm 2 mps 751 mmHg 55%
18:00 +25°C° 0 mm 2 mps 751 mmHg 62%
19:00 +23°C° 0 mm 1 mps 750 mmHg 69%
20:00 +22°C° 0 mm 1 mps 751 mmHg 70%
21:00 +21°C° 0 mm 1 mps 751 mmHg 72%
22:00 +20°C° 0 mm 1 mps 751 mmHg 74%
23:00 +19°C° 0 mm 1 mps 751 mmHg 74%

10 July, Friday

Time Temperature Precipitation Wind Pressure Humidity
00:00 +19°C° 0 mm 1 mps 751 mmHg 73%
01:00 +19°C° 0 mm 1 mps 751 mmHg 73%
02:00 +18°C° 0 mm 1 mps 751 mmHg 74%
03:00 +18°C° 0 mm 1 mps 751 mmHg 74%
04:00 +18°C° 0 mm 1 mps 750 mmHg 74%
05:00 +20°C° 0 mm 1 mps 750 mmHg 70%
06:00 +21°C° 0 mm 1 mps 750 mmHg 67%
07:00 +23°C° 0 mm 2 mps 751 mmHg 63%
08:00 +24°C° 0 mm 2 mps 750 mmHg 59%
09:00 +26°C° 0 mm 2 mps 750 mmHg 56%
10:00 +27°C° 0 mm 2 mps 750 mmHg 52%
11:00 +28°C° 0 mm 2 mps 750 mmHg 51%
12:00 +29°C° 0 mm 3 mps 750 mmHg 49%
13:00 +30°C° 0 mm 3 mps 749 mmHg 47%
14:00 +30°C° 0 mm 3 mps 749 mmHg 48%
15:00 +30°C° 0 mm 3 mps 749 mmHg 50%
16:00 +30°C° 0 mm 4 mps 748 mmHg 51%
17:00 +28°C° 0 mm 3 mps 748 mmHg 57%
18:00 +27°C° 0 mm 3 mps 748 mmHg 64%
19:00 +25°C° 0 mm 2 mps 748 mmHg 71%
20:00 +24°C° 0 mm 2 mps 748 mmHg 74%
21:00 +23°C° 0 mm 2 mps 749 mmHg 77%
22:00 +20°C° 0 mm 2 mps 749 mmHg 80%
23:00 +20°C° 0 mm 2 mps 749 mmHg 81%
Show more